sat.trackr.live / text

‹ back to catalog

UNKNOWN

NORAD 81693

UNKNOWN UNKNOWN UNKNOWN

§ Identity

Operator
Country
Launch date
Launch site
Launch vehicle
Mass (kg)
RCS (m²)

External: N2YO · Heavens-Above

§ Orbital elements

Epoch: 2026-05-20T13:44:22.061184Z

Period
117.43 min
Inclination
101.1030°
Eccentricity
0.0395234
Mean motion
12.26261189 rev/d
Perigee alt
1,251.4 km
Apogee alt
1,879.3 km
Semi-major
7,943.5 km
B*
4.3297e-3
RAAN
189.7190°
Arg perigee
143.6088°
Mean anomaly
219.2543°
Rev number
98,723

§ Raw data

UNKNOWN1 81693U          26140.57247756  .00000589  00000+0  43297-2 0  99912 81693 101.1030 189.7190 0395234 143.6088 219.2543 12.26261189987239

JSON: /api/v1/satellites/81693 · /tle

For live sub-satellite position, see the globe view (requires WebGL).

§ Visibility from observer

Set your observer location to see the next 7 days of passes ≥ 10°. The values pass through the URL so the page stays shareable.

No JS? Fill the form by hand. The geolocation button needs JavaScript.